Date String (YYYY-MM-DD hh:mm:ss) UTC,Instrument flags,Ambient pressure (hPa),Sample flow (lpm),Bypass flow (lpm),Sample temperature (°C),Ambient temperature (°C),ASC tube jacket temperature (°C),LED temperature (°C),Box temperature (°C),Sample RH (%),Span deviation,Mass concentration (μg/m³),Mass concentration (μg/m³),Mass concentration (μg/m³)
DateTimeUTC,F1_M11,P_M11,Q1_M11,Q2_M11,T1_M11,T2_M11,T3_M11,T4_M11,T5_M11,U1_M11,ZSPAN_M11,X0_M11,X2_M11,X1_M11
2022-03-24 08:00:00,,0825.4,5.01,0.00,22.0,21.7,00.0,30.9,23.9,08.9,0000.0,0005.84,0001.91,0001.18
2022-03-24 08:01:00,,0825.4,5.00,0.00,22.0,21.5,00.0,30.9,23.8,08.9,0000.0,0005.90,0001.93,0001.18
2022-03-24 08:02:00,,0825.3,4.99,0.00,22.0,21.4,00.0,30.9,23.7,08.9,0000.0,0005.54,0001.96,0001.18
2022-03-24 08:03:00,,0825.3,5.01,0.00,22.0,21.3,00.0,30.9,23.7,08.9,0000.0,0005.87,0001.99,0001.17
2022-03-24 08:04:00,,0825.3,5.00,0.00,22.0,21.2,00.0,30.9,23.7,08.8,0000.0,0005.94,0002.01,0001.18
2022-03-24 08:05:00,,0825.3,5.00,0.00,21.9,21.2,00.0,30.9,23.7,08.8,0000.0,0004.78,0001.99,0001.18
2022-03-24 08:06:00,,0825.3,5.00,0.00,21.9,21.1,00.0,30.9,23.6,08.8,0000.0,0004.81,0002.03,0001.19
2022-03-24 08:07:00,,0825.3,5.00,0.00,21.9,21.0,00.0,30.9,23.6,08.8,0000.0,0004.97,0002.05,0001.19
2022-03-24 08:08:00,,0825.3,5.00,0.00,21.9,21.0,00.0,30.9,23.6,08.7,0000.0,0005.25,0002.10,0001.17
2022-03-24 08:09:00,,0825.2,5.01,0.00,21.9,21.0,00.0,30.9,23.6,08.8,0000.0,0004.88,0002.13,0001.16
2022-03-24 08:10:00,,0825.2,5.00,0.00,21.9,21.0,00.0,30.9,23.5,08.8,0000.0,0004.82,0002.15,0001.16
2022-03-24 08:11:00,,0825.2,5.00,0.00,21.8,20.9,00.0,30.9,23.5,08.8,0000.0,0004.67,0002.12,0001.16
2022-03-24 08:12:00,,0825.2,5.00,0.00,21.8,20.8,00.0,30.9,23.4,08.9,0000.0,0004.68,0002.13,0001.16
2022-03-24 08:13:00,,0825.2,5.00,0.00,21.8,20.7,00.0,30.8,23.4,08.9,0000.0,0004.77,0002.15,0001.17
2022-03-24 08:14:00,,0825.2,5.01,0.00,21.7,20.7,00.0,30.8,23.3,08.9,0000.0,0004.76,0002.11,0001.17
2022-03-24 08:15:00,,0825.2,5.00,0.00,21.7,20.7,00.0,30.8,23.3,08.9,0000.0,0006.04,0002.04,0001.16
2022-03-24 08:16:00,,0825.2,5.00,0.00,21.7,20.7,00.0,30.8,23.3,08.9,0000.0,0006.02,0002.07,0001.16
2022-03-24 08:17:00,,0825.2,5.00,0.00,21.7,20.7,00.0,30.8,23.3,09.0,0000.0,0006.51,0002.05,0001.15
2022-03-24 08:18:00,,0825.2,5.00,0.00,21.7,20.7,00.0,30.8,23.4,09.0,0000.0,0006.74,0002.01,0001.14
2022-03-24 08:19:00,,0825.1,5.00,0.00,21.7,20.8,00.0,30.8,23.4,09.0,0000.0,0006.91,0002.02,0001.14
2022-03-24 08:20:00,,0825.1,5.00,0.00,21.7,20.8,00.0,30.7,23.4,09.0,0000.0,0006.93,0001.99,0001.14
2022-03-24 08:21:00,,0825.1,4.99,0.00,21.7,20.9,00.0,30.7,23.4,09.1,0000.0,0007.00,0002.01,0001.14
2022-03-24 08:22:00,,0825.1,5.00,0.00,21.7,20.8,00.0,30.7,23.4,09.2,0000.0,0007.35,0002.11,0001.14
2022-03-24 08:23:00,,0825.1,5.01,0.00,21.7,20.8,00.0,30.7,23.4,09.1,0000.0,0007.37,0002.08,0001.14
2022-03-24 08:24:00,,0825.1,5.00,0.00,21.7,20.8,00.0,30.7,23.4,09.2,0000.0,0007.34,0002.00,0001.12
2022-03-24 08:25:00,,0825.1,5.00,0.00,21.7,20.9,00.0,30.7,23.4,09.2,0000.0,0007.12,0001.98,0001.11
2022-03-24 08:26:00,,0825.1,4.98,0.00,21.7,20.8,00.0,30.7,23.3,09.2,0000.0,0005.52,0002.02,0001.12
2022-03-24 08:27:00,,0825.1,5.00,0.00,21.6,20.8,00.0,30.7,23.3,09.2,0000.0,0005.54,0002.01,0001.11
2022-03-24 08:28:00,,0825.1,5.00,0.00,21.6,20.8,00.0,30.7,23.3,09.2,0000.0,0004.81,0001.92,0001.10
2022-03-24 08:29:00,,0825.0,5.00,0.00,21.6,20.8,00.0,30.7,23.3,09.3,0000.0,0004.45,0001.94,0001.10
2022-03-24 08:30:00,,0825.1,5.00,0.00,21.6,20.7,00.0,30.7,23.3,09.4,0000.0,0004.22,0001.93,0001.10
2022-03-24 08:31:00,,0825.1,5.00,0.00,21.6,20.7,00.0,30.7,23.3,09.3,0000.0,0004.22,0001.96,0001.10
2022-03-24 08:32:00,,0825.1,5.01,0.00,21.6,20.7,00.0,30.7,23.3,09.3,0000.0,0004.12,0001.95,0001.10
2022-03-24 08:33:00,,0825.1,5.00,0.00,21.6,20.7,00.0,30.7,23.4,09.2,0000.0,0003.87,0001.88,0001.11
2022-03-24 08:34:00,,0825.1,5.00,0.00,21.6,20.7,00.0,30.7,23.4,09.2,0000.0,0003.89,0001.92,0001.12
2022-03-24 08:35:00,,0825.1,4.99,0.00,21.6,20.8,00.0,30.7,23.4,09.2,0000.0,0003.82,0001.97,0001.14
2022-03-24 08:36:00,,0825.1,5.00,0.00,21.6,20.8,00.0,30.6,23.4,09.2,0000.0,0003.80,0001.98,0001.15
2022-03-24 08:37:00,,0825.1,4.99,0.00,21.6,20.8,00.0,30.6,23.3,09.2,0000.0,0003.77,0001.97,0001.15
2022-03-24 08:38:00,,0825.0,5.00,0.00,21.6,20.9,00.0,30.6,23.3,09.2,0000.0,0003.73,0001.95,0001.15
2022-03-24 08:39:00,,0825.0,5.01,0.00,21.6,21.0,00.0,30.6,23.4,09.2,0000.0,0003.93,0002.03,0001.17
2022-03-24 08:40:00,,0825.1,5.01,0.00,21.7,21.7,00.0,30.7,23.6,09.3,0000.0,0004.39,0002.07,0001.17
2022-03-24 08:41:00,,0825.1,5.01,0.00,21.9,22.6,00.0,30.7,23.9,09.2,0000.0,0004.39,0002.05,0001.18
2022-03-24 08:42:00,,0825.1,4.99,0.00,22.1,23.3,00.0,30.8,24.2,09.1,0000.0,0004.41,0002.07,0001.19
2022-03-24 08:43:00,,0825.1,5.01,0.00,22.2,23.2,00.0,30.8,24.2,09.1,0000.0,0004.46,0002.09,0001.19
2022-03-24 08:44:00,,0825.1,4.98,0.00,22.2,22.8,00.0,30.9,24.2,09.0,0000.0,0004.34,0002.05,0001.19
2022-03-24 08:45:00,,0825.1,5.00,0.00,22.2,22.4,00.0,30.9,24.1,09.1,0000.0,0004.39,0002.06,0001.19
2022-03-24 08:46:00,,0825.1,5.01,0.00,22.1,22.2,00.0,30.9,24.0,09.1,0000.0,0005.61,0002.12,0001.19
2022-03-24 08:47:00,,0825.1,4.99,0.00,22.1,21.9,00.0,30.9,24.0,09.2,0000.0,0006.37,0002.22,0001.20
2022-03-24 08:48:00,,0825.1,5.00,0.00,22.1,21.7,00.0,30.9,23.9,09.2,0000.0,0006.59,0002.30,0001.20
2022-03-24 08:49:00,,0825.1,5.00,0.00,22.1,21.6,00.0,31.0,23.9,09.2,0000.0,0006.83,0002.37,0001.22
2022-03-24 08:50:00,,0825.1,5.00,0.00,22.1,21.5,00.0,31.0,23.8,09.3,0000.0,0007.17,0002.44,0001.25
2022-03-24 08:51:00,,0825.0,5.00,0.00,22.1,21.4,00.0,31.0,23.8,09.3,0000.0,0007.16,0002.53,0001.28
2022-03-24 08:52:00,,0825.0,5.00,0.00,22.0,21.3,00.0,31.0,23.8,09.3,0000.0,0007.10,0002.57,0001.28
2022-03-24 08:53:00,,0824.9,5.01,0.00,22.0,21.3,00.0,31.0,23.8,09.3,0000.0,0007.09,0002.60,0001.28
2022-03-24 08:54:00,,0824.9,4.99,0.00,22.0,21.2,00.0,31.0,23.8,09.3,0000.0,0007.13,0002.62,0001.30
2022-03-24 08:55:00,,0824.9,5.00,0.00,22.0,21.2,00.0,31.0,23.8,09.3,0000.0,0007.25,0002.68,0001.31
2022-03-24 08:56:00,,0824.9,5.00,0.00,22.0,21.1,00.0,31.0,23.8,09.3,0000.0,0007.20,0002.68,0001.33
2022-03-24 08:57:00,,0824.8,4.99,0.00,22.0,21.0,00.0,31.0,23.8,09.4,0000.0,0006.15,0002.69,0001.34
2022-03-24 08:58:00,,0824.9,5.00,0.00,22.0,21.0,00.0,31.0,23.7,09.5,0000.0,0005.99,0002.65,0001.35
2022-03-24 08:59:00,,0824.9,5.00,0.00,22.0,20.9,00.0,31.0,23.7,09.5,0000.0,0005.97,0002.64,0001.38
